Theta_e
327 326 324 324 323 322 320 320 321 320 318 318 318 318 318 318 321 320 319 321 325 330 331 331 330 330 329 328 328 329 330 329 328 325 321 324 329 322 317 324 327 327 329 324 320 323 323 317 309 307 307 306 306 306 306 306 306 306 306 306 306 305 304 304 304 303 303 303 304 304 304 305 305 306 306 307 307 307 308 308 309 309 309 309 308
328 327 325 324 323 322 320 322 324 322 319 319 319 319 318 320 322 323 321 321 325 330 330 330 330 330 329 329 329 330 330 329 328 326 323 323 327 324 319 322 324 326 325 320 321 323 321 315 310 308 308 308 308 308 308 309 310 311 311 310 310 308 307 305 304 303 303 303 303 303 303 303 304 304 304 305 306 307 307 308 308 309 309 309 309
329 328 326 325 324 323 323 324 326 325 323 322 321 320 320 322 324 325 323 322 327 330 329 329 329 329 329 330 330 330 330 328 327 326 325 324 326 326 323 323 322 322 320 318 322 323 320 317 313 311 311 311 312 313 315 317 318 319 318 317 315 313 311 309 308 305 304 303 302 302 302 303 303 303 303 303 304 305 306 307 308 308 309 309 309
329 328 327 326 326 326 326 326 326 327 326 325 324 323 323 325 325 326 325 325 328 330 329 328 328 328 330 330 330 330 330 328 327 326 326 325 325 324 322 322 320 318 320 322 323 323 323 322 320 318 317 317 318 320 321 323 324 324 324 323 322 320 318 316 314 311 309 307 305 303 303 302 302 302 302 302 303 304 306 307 308 308 308 309 309
329 328 328 328 327 327 327 327 326 327 327 327 327 326 326 326 326 327 327 326 328 329 329 328 328 329 329 330 330 330 329 328 327 326 326 324 322 322 321 321 319 318 322 325 325 325 325 325 325 325 324 323 324 324 325 326 327 326 327 327 326 324 323 321 319 317 316 314 312 310 308 307 307 306 306 306 306 306 307 308 309 308 308 308 309
329 328 328 328 327 326 326 326 327 327 327 327 328 327 327 327 327 328 328 328 327 328 328 328 328 328 329 330 329 329 328 328 327 326 325 322 322 323 322 322 322 323 325 326 327 327 326 326 326 326 326 325 326 326 326 327 327 327 327 327 326 325 324 323 323 321 320 319 318 317 316 315 314 314 313 312 311 310 310 310 309 308 308 308 308
328 328 327 327 328 327 326 327 327 327 326 327 328 328 328 328 328 329 329 329 328 328 328 328 328 328 329 329 328 328 328 328 328 326 325 323 324 324 322 322 323 324 327 328 327 327 327 326 326 326 326 326 326 326 325 326 327 326 326 327 326 324 323 324 324 324 324 323 323 322 321 321 320 319 318 316 314 312 311 310 310 309 309 309 308
328 329 327 327 327 326 326 326 328 327 327 327 328 328 328 328 329 329 330 329 329 329 328 328 329 329 329 328 327 328 328 328 327 326 325 324 325 324 323 324 325 325 326 327 327 326 326 325 325 326 325 325 324 324 324 324 325 325 325 326 325 324 323 324 325 324 325 325 325 325 324 324 324 323 322 319 316 313 312 311 310 309 309 309 308
328 328 328 328 326 326 326 325 327 327 327 327 327 328 328 328 328 329 329 328 328 329 328 328 329 329 329 328 327 328 328 328 327 326 326 326 325 325 325 326 326 326 326 326 325 324 324 324 325 325 324 324 323 323 323 323 323 323 323 324 324 323 324 324 325 325 324 324 326 326 326 326 325 325 324 323 319 315 313 312 311 310 310 309 309
327 326 327 328 327 326 326 326 326 327 327 327 327 328 327 327 327 328 328 328 327 327 327 329 330 329 328 328 328 328 327 327 327 327 326 326 326 326 326 326 326 326 325 325 325 324 324 324 325 324 324 323 323 323 323 322 322 321 322 323 323 323 323 324 324 325 324 324 326 326 325 325 325 325 325 324 322 319 316 314 314 313 312 311 310
327 325 326 328 327 326 326 326 327 327 327 327 327 327 326 327 327 327 328 327 326 326 327 329 329 328 328 328 328 327 327 327 328 327 326 326 326 326 326 326 326 326 326 325 325 325 324 325 325 324 324 323 323 323 322 321 320 319 320 322 322 321 322 322 323 324 324 324 325 325 324 324 325 326 326 325 324 323 321 319 317 315 314 313 312
326 325 325 326 326 327 327 327 327 327 327 326 326 326 326 327 327 327 328 327 326 327 328 329 328 328 328 328 327 327 327 327 327 326 326 326 326 326 326 326 326 326 326 326 326 325 325 324 324 323 323 323 323 322 320 319 318 318 320 322 322 321 321 322 323 323 323 324 325 324 324 324 325 325 325 326 326 325 324 323 322 319 318 317 315
326 325 325 326 326 327 327 327 327 327 327 326 325 326 326 327 327 327 327 327 327 328 328 328 328 328 328 328 327 327 327 327 327 326 326 326 326 326 325 325 326 326 326 325 324 324 324 324 323 323 322 322 320 319 318 318 319 319 320 322 323 322 322 323 323 323 323 324 324 324 324 325 325 325 325 326 326 325 325 325 325 324 323 321 319
326 326 326 325 326 326 327 327 327 327 327 326 326 326 326 327 326 327 327 327 327 328 328 327 328 328 327 327 327 327 327 327 326 325 324 324 324 324 324 324 325 325 324 323 322 322 323 323 322 322 321 319 318 318 318 319 320 320 321 322 323 323 323 323 323 323 324 325 324 324 324 324 325 325 325 325 325 325 325 325 325 325 325 324 323
326 326 326 326 327 327 327 327 327 327 328 327 326 326 326 327 326 326 327 327 328 328 328 328 328 327 327 327 327 327 327 325 324 322 321 321 321 322 323 323 324 323 322 321 321 321 321 321 320 319 319 318 318 318 319 320 320 320 320 321 322 323 323 323 323 323 323 323 323 323 323 324 324 325 325 325 325 325 325 325 325 325 325 325 325
327 327 327 327 328 328 328 328 327 328 328 327 327 326 326 327 326 326 326 327 328 328 328 328 328 327 328 327 327 327 326 324 322 322 322 322 321 321 322 322 322 322 321 321 321 320 320 319 319 318 318 318 318 317 317 318 319 319 319 319 320 322 322 322 322 322 322 321 320 320 320 321 321 321 322 322 322 322 323 324 324 324 324 325 325
327 326 327 327 327 327 328 328 327 328 328 328 327 326 326 327 327 326 326 327 327 328 328 328 328 327 327 327 327 327 326 324 323 323 323 323 322 321 321 322 322 321 321 320 320 319 319 319 319 319 319 318 316 314 313 314 315 315 317 318 319 320 321 321 321 321 320 320 319 319 319 319 318 317 317 317 317 318 319 321 322 322 323 323 323
325 325 326 327 327 327 327 328 328 328 328 327 327 326 325 327 327 326 326 326 326 327 328 328 328 327 327 326 326 327 325 324 324 324 323 322 321 320 320 320 321 320 319 319 318 318 319 319 318 317 316 314 312 310 309 309 310 310 313 316 317 317 318 319 319 319 319 318 318 318 317 316 315 314 314 314 315 316 316 317 318 318 318 318 319
324 325 327 327 327 327 327 327 327 327 327 326 327 326 325 327 327 326 326 327 326 327 328 328 328 327 326 325 325 326 324 323 325 325 324 322 321 320 319 318 318 318 317 317 316 316 316 315 314 312 311 310 308 307 306 306 307 307 309 311 312 311 312 313 312 313 312 312 311 310 309 308 308 307 307 308 309 311 312 313 314 314 314 314 315
325 326 326 326 326 327 327 326 326 326 326 326 326 325 325 327 327 327 326 327 327 327 327 328 328 327 326 326 325 325 324 323 323 324 324 324 322 319 318 317 316 315 314 314 314 315 314 312 311 310 309 307 306 305 305 305 305 305 306 307 306 306 306 307 306 306 306 306 306 305 305 305 305 305 304 304 305 305 306 307 308 308 309 309 309
325 324 325 326 326 327 326 326 326 326 326 326 326 326 326 327 328 328 327 327 327 328 327 327 327 327 327 326 325 325 324 323 323 323 323 324 323 320 318 316 314 312 310 310 311 313 313 313 312 309 307 306 305 305 305 305 305 305 305 304 305 305 305 305 305 305 305 305 305 305 305 305 305 305 305 305 305 305 305 304 305 305 305 305 305
325 324 324 325 326 326 325 325 325 326 326 326 325 326 326 327 328 328 327 327 328 328 327 327 327 327 326 326 326 325 324 324 324 323 323 323 323 322 320 318 314 310 309 308 308 310 311 312 311 308 306 306 305 306 306 306 306 305 304 304 305 305 305 306 306 306 306 306 306 306 306 306 306 306 306 306 306 306 306 306 306 305 305 305 305
324 324 324 324 324 325 324 324 324 324 325 325 325 325 326 326 327 327 327 327 327 327 327 327 327 327 326 327 327 326 325 324 324 324 323 323 323 323 322 319 315 311 309 308 307 308 309 309 308 306 306 306 306 306 306 306 305 305 305 305 305 306 307 307 307 307 307 307 307 307 306 306 305 305 305 304 304 304 304 304 304 304 304 304 304
319 321 323 323 323 323 323 323 324 324 324 324 325 325 325 325 326 326 326 326 326 326 326 326 327 327 327 327 327 326 325 324 324 324 323 322 322 322 322 320 316 312 310 309 307 307 307 307 306 306 306 306 306 306 306 305 305 305 305 306 307 307 307 307 306 306 306 306 306 305 304 303 302 302 301 301 301 301 301 301 301 301 301 301 301
317 318 320 321 322 322 322 321 322 324 324 324 324 325 325 325 325 326 325 325 326 326 326 327 326 327 328 327 327 327 326 325 324 324 323 322 321 322 321 320 317 312 309 308 308 307 306 306 306 306 306 306 305 305 305 305 305 305 306 307 308 308 307 307 305 305 304 304 304 303 302 302 301 301 301 300 301 301 301 301 300 301 300 300 300
318 318 319 319 319 320 321 321 322 323 323 323 324 324 325 325 325 326 325 325 325 326 326 327 327 327 327 327 327 326 325 324 324 324 323 322 321 321 320 319 316 313 311 309 309 308 307 306 306 306 305 305 305 304 304 305 305 306 307 308 308 308 308 307 306 304 303 303 302 302 302 302 301 301 301 301 302 302 301 301 301 301 301 301 300
317 318 319 318 317 317 319 320 322 322 322 322 322 323 324 325 325 326 326 326 326 326 326 326 326 326 326 326 327 326 324 323 324 323 322 322 321 321 320 317 315 314 313 311 310 309 308 307 307 306 305 305 304 304 304 305 306 307 308 308 308 308 308 308 307 305 304 304 304 304 304 304 304 304 304 304 304 303 303 303 303 302 302 301 301
316 316 318 318 317 317 319 320 322 322 322 321 321 321 322 324 325 325 325 326 326 325 324 325 326 326 325 326 326 325 324 323 323 323 322 322 321 320 320 315 313 314 315 314 312 310 309 308 308 307 306 305 304 304 305 306 307 307 308 308 308 308 308 308 307 305 305 306 306 306 306 306 306 307 307 306 306 306 306 306 305 305 304 302 301
315 316 317 318 317 317 319 320 321 323 322 322 321 320 319 322 324 324 324 325 325 324 322 323 325 325 325 325 325 325 324 323 323 322 321 322 320 319 319 314 311 313 314 315 313 311 309 309 308 307 306 305 305 305 306 306 307 307 308 308 308 309 309 307 306 306 307 308 308 308 307 307 308 308 309 308 308 308 308 308 307 307 305 304 302
313 314 317 317 317 316 317 317 319 320 321 320 319 319 320 321 322 323 323 323 323 322 320 321 323 324 324 325 325 325 324 323 323 322 321 321 319 317 316 313 312 311 311 313 313 310 310 309 308 308 307 306 306 306 307 307 307 308 308 309 309 309 308 307 307 307 308 309 309 309 308 308 309 309 310 310 310 309 309 309 309 308 307 305 303
311 313 316 317 316 315 314 315 316 317 318 319 318 319 321 321 321 322 321 319 319 320 320 321 322 323 323 324 324 324 324 323 323 323 321 320 317 314 313 313 312 309 308 312 313 311 310 310 309 309 308 308 307 307 308 308 308 308 309 309 309 309 308 308 308 309 309 309 309 309 309 308 309 310 310 310 310 310 310 309 309 309 308 306 303
311 310 312 315 315 313 313 317 320 320 320 320 320 320 320 319 319 319 318 318 319 320 321 322 323 322 322 322 323 323 323 322 323 323 321 318 314 312 313 312 311 309 308 311 313 311 309 309 309 309 309 309 308 308 308 308 308 308 308 309 309 309 308 308 308 309 309 310 310 310 309 309 310 310 310 310 311 310 310 310 310 309 308 306 304
311 308 308 311 311 312 316 320 321 321 321 321 321 321 320 319 319 320 320 320 321 322 322 322 320 318 317 318 319 321 322 322 322 321 320 317 313 311 312 312 311 311 309 310 312 312 309 309 310 310 309 309 309 308 308 308 308 308 308 309 308 308 308 308 308 309 309 310 310 310 309 309 310 310 310 311 311 311 310 310 310 309 308 306 304
311 308 308 308 309 314 318 320 320 320 320 320 320 321 321 321 320 321 321 320 320 320 320 319 317 315 315 315 315 317 320 322 322 321 320 317 313 312 313 312 311 311 311 311 311 311 310 309 310 310 310 310 309 309 309 308 308 308 308 308 308 308 308 308 308 309 309 310 310 310 310 310 310 310 310 310 310 310 310 310 310 309 308 307 304
310 308 307 307 310 316 319 319 320 320 319 318 319 320 322 322 321 320 319 316 315 316 316 316 316 316 316 316 315 315 316 318 320 320 320 319 317 315 314 313 312 312 312 312 312 311 310 309 310 310 311 310 309 309 309 309 308 308 308 308 308 308 308 309 309 308 309 309 310 310 310 310 310 310 310 310 310 310 310 310 309 309 308 307 304
308 307 307 306 309 316 319 319 319 319 319 318 317 318 320 322 322 320 318 316 315 314 314 314 315 315 316 316 317 316 316 316 317 318 320 320 320 318 317 315 314 314 314 313 313 312 311 310 309 310 311 311 310 309 309 309 309 309 308 309 309 308 308 309 309 309 309 309 310 310 310 310 310 310 310 310 310 310 310 309 309 309 308 307 304
306 306 306 305 306 313 317 317 317 317 317 317 317 316 316 318 321 322 321 319 318 316 316 316 316 316 317 316 316 316 316 315 316 317 319 320 320 320 319 317 315 315 314 314 313 313 312 311 310 310 311 311 310 309 309 309 309 309 309 309 309 309 309 309 309 309 309 309 310 310 310 310 310 310 310 310 310 310 310 309 309 309 308 306 304
306 305 305 305 305 310 315 315 316 316 315 315 315 315 315 314 316 319 321 321 320 320 319 319 318 316 315 314 314 314 315 315 315 315 316 318 319 318 317 316 315 314 314 314 314 314 313 312 311 310 311 312 311 310 309 309 309 309 309 309 309 309 309 309 309 309 309 309 310 310 310 310 310 310 310 310 310 310 309 309 308 308 308 306 303
307 307 307 307 307 309 312 313 313 313 312 311 311 313 314 312 310 311 316 320 320 319 318 315 313 312 311 312 313 314 314 314 314 314 314 315 315 315 314 314 314 313 313 314 314 314 313 313 312 310 311 313 313 311 309 309 309 309 309 309 309 310 310 309 309 309 310 310 310 310 310 310 310 310 310 310 310 309 309 308 308 308 307 304 301
310 310 311 311 310 310 309 309 309 309 309 309 309 309 310 310 307 306 310 314 315 313 312 311 311 310 309 310 313 314 314 314 314 314 314 313 313 313 313 313 313 313 313 314 314 314 313 313 312 310 311 313 314 312 311 310 309 310 310 310 310 311 311 310 309 309 309 310 310 310 310 310 310 310 310 310 310 309 308 308 308 307 305 302 300
311 312 312 312 312 312 310 309 309 309 309 310 309 309 309 309 308 305 306 308 309 309 310 311 311 312 311 310 312 312 312 313 312 312 312 312 313 313 313 313 314 313 314 314 314 314 314 313 313 312 313 314 314 314 313 312 311 311 312 311 311 311 311 311 310 310 310 309 309 310 310 310 310 310 310 310 309 309 308 308 308 306 303 300 298
311 312 312 313 313 313 312 312 312 312 312 311 310 310 311 311 311 309 307 306 307 309 311 311 311 312 313 313 312 312 312 312 312 312 312 312 312 312 311 312 312 313 313 314 314 314 314 314 314 314 314 314 314 314 314 313 313 312 312 312 311 311 312 311 311 312 311 310 310 310 310 310 310 309 309 309 309 308 308 308 307 305 301 299 298
312 313 313 314 314 313 313 313 313 313 314 313 312 311 311 311 311 312 311 311 311 311 312 312 312 312 313 313 313 313 313 313 313 313 312 311 311 310 310 311 311 311 312 313 313 314 314 314 314 314 314 314 314 314 314 313 313 313 312 312 311 311 311 311 312 312 312 312 311 310 310 310 310 309 309 308 308 307 307 307 305 302 299 298 297
313 314 315 315 314 314 314 314 313 313 314 314 314 313 313 312 311 312 312 312 312 313 313 313 313 313 313 313 313 312 313 313 313 312 311 311 311 311 311 311 311 312 313 314 314 314 314 314 314 314 314 314 314 314 314 314 314 313 313 313 312 311 311 311 311 312 313 313 312 311 310 310 310 309 308 308 307 307 307 305 302 299 298 297 296
312 313 315 316 316 314 314 314 313 314 314 314 314 314 314 314 313 313 312 312 312 312 312 312 312 312 312 312 312 312 312 312 312 312 312 312 312 312 312 312 312 312 312 313 314 315 315 315 315 316 316 315 315 315 314 314 314 314 314 314 313 312 311 310 310 311 313 313 311 310 310 310 309 308 307 307 307 307 306 303 300 298 297 296 296
313 314 316 317 317 317 316 315 314 314 314 314 314 314 314 314 314 314 314 313 313 313 313 313 313 312 312 312 312 312 313 313 313 313 313 313 313 313 313 313 313 313 313 314 314 315 315 316 316 316 317 317 317 317 316 316 315 315 314 314 314 313 312 311 312 312 313 312 311 310 309 309 309 308 307 308 308 306 304 300 298 298 297 296 295
316 318 318 318 318 318 318 317 316 315 315 314 314 314 314 314 314 314 314 314 314 314 314 314 314 314 314 313 313 313 313 314 314 314 314 314 314 314 314 314 314 314 314 314 315 315 316 316 316 317 317 317 317 317 317 317 316 316 315 314 314 314 313 312 312 312 312 311 311 310 308 308 309 307 306 307 306 303 300 299 298 297 296 295 295
319 319 319 319 318 319 319 318 318 317 316 316 315 315 315 316 316 316 316 316 316 316 316 316 316 316 316 316 315 315 315 315 314 314 314 314 314 314 314 315 315 315 315 315 315 315 316 316 317 317 317 317 318 317 317 317 317 316 316 315 315 315 314 312 312 312 312 312 311 310 308 308 308 307 306 306 303 300 298 298 297 296 295 295 295
319 319 318 317 317 317 317 318 319 318 318 318 317 317 317 317 317 317 317 317 317 318 318 318 318 318 318 318 318 317 317 317 317 316 316 316 315 315 315 315 315 315 315 315 316 316 316 316 317 317 317 317 318 317 317 317 317 317 316 316 316 315 313 312 312 312 312 312 311 310 308 307 308 307 305 303 300 299 298 297 296 295 295 295 295
317 317 316 316 316 315 315 316 318 319 319 319 319 318 318 318 318 318 318 318 319 319 319 319 319 319 319 319 319 319 318 318 318 318 318 318 318 317 317 317 316 316 316 316 316 315 316 316 316 317 317 317 317 317 317 317 317 316 316 316 315 313 312 311 311 312 312 311 310 309 307 307 307 306 303 300 299 298 297 296 295 295 295 295 295
313 313 313 313 313 313 313 313 315 317 318 318 318 318 318 318 318 318 318 318 317 317 317 317 317 317 317 318 318 318 318 319 319 319 319 318 319 319 318 318 318 318 317 317 316 316 316 316 317 317 317 317 317 316 316 316 316 316 316 315 314 312 311 311 312 312 311 310 310 309 307 306 305 303 300 298 298 297 296 295 295 295 295 295 295
Wind_Speed
9 9 8 7 6 6 5 6 7 6 6 6 7 7 8 9 9 10 12 13 13 12 11 10 9 9 8 8 9 9 9 9 7 7 8 10 9 5 8 9 8 6 2 4 4 7 9 9 8 7 7 7 6 7 8 8 9 10 10 9 9 8 7 6 6 5 5 4 4 4 4 4 5 5 6 7 7 8 8 9 9 9 9 10 10
9 8 7 6 5 5 5 6 6 6 6 6 6 7 8 9 8 8 10 12 13 12 11 10 9 8 8 9 9 9 9 8 6 7 8 9 8 6 7 7 6 5 2 4 6 10 12 12 11 10 10 9 9 11 11 12 13 13 12 11 11 10 9 8 7 7 6 5 5 5 5 5 5 6 6 6 7 7 8 8 9 9 9 10 10
9 8 7 6 5 5 5 6 6 6 6 6 6 6 8 8 8 8 9 11 13 13 11 10 9 8 8 9 8 9 8 7 6 7 7 8 8 6 6 6 4 5 7 10 12 13 13 14 14 14 13 13 13 14 14 14 14 13 12 12 11 11 11 10 9 9 9 8 7 6 6 6 6 6 6 7 7 7 7 8 8 9 9 10 10
8 8 7 6 6 6 6 6 6 6 6 6 6 6 7 8 8 8 8 10 12 13 11 9 8 7 8 9 9 9 8 7 6 6 7 7 7 6 7 7 6 7 11 13 14 14 11 10 11 12 12 12 11 11 10 10 10 10 10 10 10 10 10 10 11 11 10 10 10 9 8 8 8 7 8 8 7 7 7 7 8 9 9 10 11
8 8 8 7 7 7 7 7 7 7 7 7 7 7 8 8 8 8 7 8 10 12 11 9 8 7 8 9 10 10 8 7 6 6 6 7 7 7 7 8 9 10 11 11 13 12 10 8 7 7 8 8 7 7 7 7 6 6 7 7 7 8 9 9 10 11 11 11 11 10 10 10 9 9 9 8 8 7 7 7 8 8 9 10 11
9 8 9 9 9 8 8 8 8 8 8 7 8 8 8 8 7 7 7 7 8 10 11 10 9 9 9 9 9 9 9 7 5 6 6 7 8 7 7 8 9 9 9 8 9 9 8 8 7 6 6 6 5 5 5 5 4 4 4 4 5 6 7 8 8 9 9 9 10 10 11 11 10 10 10 9 8 7 7 7 7 8 8 9 10
9 9 10 10 10 9 8 8 8 9 9 8 8 8 8 8 8 7 6 6 7 9 10 11 10 10 9 8 7 7 8 7 6 7 7 8 8 8 7 8 8 8 7 7 6 6 6 7 6 5 4 4 5 5 5 5 4 4 4 4 4 5 5 6 6 6 7 7 8 9 9 10 10 10 10 10 10 9 8 8 7 7 8 8 9
8 9 10 10 9 9 8 8 8 9 10 9 9 8 8 9 8 8 6 5 6 9 10 11 10 9 8 8 7 7 8 7 7 8 8 8 8 8 7 8 8 7 7 7 6 6 6 6 6 5 5 6 5 5 5 5 5 5 5 5 5 6 6 5 5 5 5 5 6 6 7 8 8 9 9 10 10 9 9 8 7 7 7 8 8
8 8 10 10 10 10 9 7 7 8 9 10 10 9 9 9 9 9 7 6 7 9 10 9 8 7 7 9 9 9 8 8 9 9 8 8 7 7 7 7 7 7 7 7 7 6 7 7 6 6 6 6 5 5 6 5 6 6 6 6 6 6 6 6 5 6 5 4 5 5 6 7 7 8 8 9 9 9 9 9 9 8 8 7 8
8 9 10 11 11 10 9 7 6 7 8 9 10 10 9 9 9 9 9 8 8 9 10 9 8 9 11 11 10 10 10 9 9 9 8 8 7 7 7 6 6 6 6 6 6 5 5 5 5 4 3 5 5 5 6 6 6 6 6 6 5 5 5 5 5 5 5 5 5 6 6 6 7 6 7 7 7 7 8 8 9 9 8 8 8
9 9 10 11 11 10 9 8 7 7 7 9 10 10 9 9 9 9 11 10 8 9 11 11 11 13 14 13 12 11 11 11 9 9 8 7 7 6 6 5 5 5 5 5 4 3 3 4 3 2 3 4 5 5 5 6 6 6 6 5 5 5 5 4 4 4 5 5 5 6 6 6 6 5 4 5 5 6 7 8 8 8 8 8 9
9 9 9 10 10 9 9 9 8 7 7 8 9 10 9 8 9 10 12 11 11 11 12 13 15 16 16 14 13 12 12 11 10 9 8 8 7 6 5 4 4 4 3 3 2 2 3 2 1 1 3 4 5 5 6 6 6 7 7 6 5 5 5 4 3 4 4 5 5 5 6 5 5 5 3 4 5 5 6 7 7 8 8 8 9
10 9 9 10 10 10 10 9 9 8 8 9 10 10 9 8 9 11 13 13 14 14 14 14 17 19 17 16 15 13 13 12 10 9 9 9 8 6 5 4 4 4 4 5 5 5 4 3 3 3 4 4 5 6 6 7 7 7 7 7 6 6 6 5 4 3 4 4 4 4 4 4 4 3 3 2 3 4 5 6 6 6 7 8 8
10 10 10 11 11 11 11 10 10 9 9 10 11 11 10 9 10 13 14 13 15 16 15 15 18 20 19 19 17 14 12 12 11 10 9 9 8 6 6 5 5 5 6 7 7 8 7 6 6 5 5 6 6 7 8 8 9 9 9 9 8 7 7 6 5 6 6 6 5 4 3 3 2 2 1 1 2 3 4 4 5 5 6 7 7
10 10 10 11 12 12 11 10 10 10 9 10 11 11 11 10 11 12 14 14 15 17 16 16 18 20 19 18 16 14 13 12 12 11 10 9 8 7 8 8 7 7 7 7 8 9 8 8 8 7 7 7 8 8 9 10 11 11 11 11 10 10 10 10 10 10 10 11 10 9 8 7 6 5 3 2 2 2 2 2 3 4 6 7 7
10 9 9 10 10 11 11 11 12 11 10 10 11 11 12 12 12 12 13 15 16 17 17 16 17 18 17 15 14 13 12 12 13 13 10 9 10 10 10 9 9 8 8 8 10 10 10 9 9 8 8 9 10 10 11 11 11 11 11 11 11 11 12 13 13 14 14 15 15 15 15 14 13 12 10 8 7 6 5 4 3 4 5 5 5
10 9 9 10 10 10 10 11 12 12 11 10 11 12 13 12 13 13 12 13 15 17 18 17 17 17 16 15 13 9 10 14 14 13 10 10 12 12 12 10 9 10 10 10 11 11 10 10 10 10 10 10 11 11 11 11 10 10 10 10 10 10 12 13 14 14 15 15 15 15 15 15 15 14 14 13 12 12 11 10 9 9 9 8 7
10 9 9 10 10 10 10 12 13 12 11 11 12 13 13 12 13 14 12 12 13 15 18 18 18 16 14 14 10 7 14 18 13 11 11 11 13 13 12 11 11 11 11 11 11 11 11 11 11 11 11 10 10 10 10 9 9 9 10 10 9 10 11 12 12 13 13 13 13 13 12 12 12 12 12 12 12 12 12 12 11 12 12 12 12
8 8 8 9 9 10 11 12 12 12 11 12 13 13 13 13 14 15 13 12 12 14 17 18 18 16 13 12 7 6 15 17 12 13 13 11 12 13 12 12 12 12 11 11 11 11 11 12 11 10 10 10 10 9 9 8 8 9 10 9 8 9 10 11 11 11 11 11 11 11 11 12 12 12 12 12 11 11 11 10 10 10 11 11 11
6 7 7 8 9 10 11 11 11 11 11 13 13 14 13 13 15 16 15 13 12 13 16 16 17 16 13 11 5 5 13 14 10 12 14 13 13 13 14 13 12 12 11 10 10 10 11 11 10 10 9 9 10 9 9 8 8 9 10 9 8 9 10 10 11 11 11 11 11 11 12 12 12 12 12 12 12 12 11 11 10 10 10 9 9
6 6 6 7 8 10 10 10 10 11 12 12 13 14 14 14 15 16 15 13 11 12 14 14 14 14 14 12 7 7 13 14 9 9 12 13 13 14 16 15 13 12 10 10 10 10 11 10 10 9 9 9 9 9 9 9 9 10 10 9 10 11 11 12 12 12 12 12 12 12 12 12 12 12 12 12 12 12 12 11 11 11 10 10 10
6 6 6 6 7 8 8 8 9 10 11 11 12 13 14 15 15 15 14 13 12 11 12 12 11 12 14 14 11 10 14 16 12 11 11 11 12 13 14 14 13 12 10 10 9 10 10 10 9 8 8 9 9 9 9 9 10 11 11 11 11 12 12 13 13 13 12 12 12 11 11 11 11 11 11 11 11 11 11 11 11 11 11 11 10
6 6 6 6 7 7 7 8 8 9 9 10 11 12 13 14 14 14 14 13 13 12 12 12 11 12 14 15 14 11 11 13 13 13 12 10 12 14 12 11 13 12 10 10 10 10 10 9 9 8 9 9 9 9 9 9 10 11 12 11 11 12 12 13 12 11 11 11 10 10 10 10 10 10 10 11 10 11 11 11 11 11 11 11 11
5 5 6 6 6 7 7 7 7 7 8 9 11 11 11 13 13 13 13 13 13 12 12 13 12 13 14 15 16 12 8 9 11 12 12 9 10 14 13 11 12 12 11 10 10 10 10 10 9 9 10 10 9 9 9 10 11 11 11 11 11 12 12 12 12 11 11 10 11 11 11 11 12 12 12 12 12 12 13 13 13 13 12 13 13
5 5 5 6 6 7 6 6 7 8 8 9 10 11 11 12 13 12 12 12 11 11 11 12 11 12 13 13 14 11 8 7 8 9 11 9 10 14 14 12 13 13 11 10 10 10 10 10 11 10 10 10 9 10 10 10 11 11 10 11 11 11 11 12 12 12 12 11 11 12 12 13 13 14 14 14 15 15 15 15 15 15 15 14 14
7 6 6 6 6 7 7 7 8 9 9 9 9 9 9 10 12 12 11 10 9 9 10 11 11 11 12 11 11 10 9 7 6 8 10 9 10 13 14 14 14 12 11 10 10 9 9 10 11 11 11 10 10 10 10 10 10 10 9 9 9 9 10 11 12 13 13 13 12 12 13 14 14 14 15 15 16 16 16 17 17 17 16 16 15
7 7 7 6 6 7 8 9 9 9 9 9 8 8 8 9 10 10 10 8 8 8 10 11 11 11 11 10 11 11 10 9 7 7 8 8 8 9 11 13 15 13 10 9 8 7 8 9 9 10 10 10 10 10 10 9 9 9 8 7 7 8 9 10 11 12 13 13 13 13 13 13 14 14 15 15 16 17 18 18 18 18 18 18 17
6 7 7 7 7 7 9 9 10 9 9 8 7 7 8 9 9 9 9 9 9 9 10 10 11 11 10 10 12 12 11 10 10 9 8 8 6 7 7 7 11 14 11 8 8 8 8 9 9 8 10 10 10 10 10 9 7 7 6 5 6 7 7 8 9 10 11 11 11 11 12 12 14 15 15 16 17 18 18 19 20 21 21 20 20
5 7 7 7 7 8 9 10 11 10 9 9 7 6 8 10 11 10 9 10 9 9 9 9 10 10 10 10 13 13 11 11 11 10 9 8 6 5 5 3 5 12 14 11 10 10 9 9 9 8 9 11 11 10 9 8 7 7 6 6 6 7 6 6 7 8 9 9 10 11 11 12 14 16 17 18 18 19 20 21 22 23 23 23 22
5 7 8 7 7 8 8 9 10 10 11 10 9 8 8 10 11 10 10 10 10 9 8 8 8 9 9 10 12 13 12 11 12 11 10 8 6 6 6 4 2 7 12 13 12 12 10 9 9 9 9 10 11 10 10 9 8 7 7 7 7 6 5 4 5 6 7 8 9 10 11 13 15 16 17 18 20 21 21 22 23 24 25 25 24
6 8 8 7 6 6 7 8 8 9 11 10 10 10 9 9 10 10 10 10 9 8 7 7 7 7 7 8 11 12 12 11 12 13 11 8 8 8 7 6 4 5 9 12 11 11 11 9 9 9 9 10 10 10 10 9 8 7 7 7 6 6 4 2 2 3 5 7 8 10 11 13 15 16 17 18 19 21 22 23 24 25 26 26 25
5 7 8 7 6 6 8 9 8 8 10 10 11 11 10 10 10 10 10 9 9 8 7 7 8 8 7 7 8 10 11 12 13 14 12 9 9 10 8 7 6 7 8 8 7 8 10 9 9 8 9 10 11 10 10 10 9 8 6 6 6 6 5 2 1 3 5 7 8 10 11 13 14 15 16 18 19 20 21 23 24 25 26 26 26
4 6 7 7 7 9 11 10 8 9 9 9 10 10 9 9 10 10 10 10 9 9 9 10 10 10 9 8 8 9 10 11 13 14 12 10 10 10 9 8 8 7 6 6 5 7 8 8 8 8 8 9 10 11 11 11 10 8 7 6 5 5 5 4 4 5 6 7 9 10 12 13 14 15 16 17 18 19 21 22 23 25 26 26 26
3 5 6 6 8 11 12 11 10 10 10 9 9 9 9 10 11 12 12 11 11 11 11 11 11 10 9 8 6 7 9 10 12 13 13 12 11 11 9 9 8 7 6 6 5 6 7 7 7 7 8 9 10 11 11 11 11 9 8 7 6 6 6 6 7 8 8 9 10 10 11 13 14 14 15 16 18 19 20 22 23 24 25 26 26
3 5 6 6 9 12 12 11 11 10 10 10 10 10 10 11 12 12 12 12 11 11 11 10 10 9 8 8 6 6 7 8 10 13 13 13 12 11 10 9 8 7 7 7 7 7 7 7 6 8 9 9 11 12 11 11 12 11 10 10 9 9 9 8 9 10 11 11 12 11 12 13 14 15 16 17 18 19 20 21 22 24 25 26 26
4 5 5 6 9 12 12 11 11 10 9 9 9 10 10 11 11 12 12 12 11 10 9 8 8 7 6 6 5 5 5 5 7 11 13 13 12 11 11 10 9 8 8 9 10 10 10 9 7 8 9 10 11 13 13 13 13 13 13 13 12 12 12 11 12 13 13 13 14 13 13 14 15 16 17 17 19 19 20 21 22 24 25 26 26
5 5 5 6 8 12 13 12 10 9 9 8 8 9 10 11 11 11 11 11 10 9 8 7 7 6 6 5 5 5 6 5 6 8 11 12 11 10 10 10 10 9 9 11 12 13 13 12 10 9 10 11 13 14 14 14 15 15 15 14 14 14 14 14 15 16 16 16 16 15 15 16 17 17 17 18 19 20 21 22 23 24 25 27 27
5 5 6 6 7 10 12 12 10 9 8 8 8 9 10 10 10 11 11 11 10 9 9 8 7 7 7 6 6 6 7 6 6 7 8 9 9 9 8 8 9 9 10 11 13 14 14 14 13 12 11 12 14 15 16 16 16 16 16 16 16 16 16 17 17 18 18 18 18 17 17 18 18 19 19 19 20 21 22 22 23 25 26 27 27
6 7 8 8 8 9 10 10 10 8 7 7 7 8 9 9 9 10 11 12 11 10 10 9 8 8 8 9 8 8 8 8 7 7 7 7 6 6 6 7 8 8 9 10 11 13 14 15 15 15 14 13 14 15 17 17 18 18 19 19 19 19 18 19 20 20 20 20 20 19 19 20 20 20 20 20 21 21 22 23 24 26 27 27 27
9 10 9 9 8 8 8 8 8 7 7 6 6 6 7 7 7 9 11 12 12 11 10 9 8 8 9 11 11 10 10 10 9 8 7 7 6 6 7 8 8 8 8 8 9 10 11 12 13 14 15 15 15 16 17 18 19 20 20 20 21 21 20 20 22 22 22 22 21 21 21 22 22 21 21 21 21 22 22 23 25 26 27 27 27
12 11 9 8 8 7 8 8 8 8 7 6 6 6 6 5 5 7 9 11 11 10 9 9 8 8 8 10 11 11 11 10 10 9 9 8 8 8 8 8 8 8 8 8 9 9 10 11 13 14 16 17 17 17 18 18 19 20 20 20 21 22 21 22 23 23 23 23 23 23 23 23 23 22 22 22 22 22 23 24 26 27 27 27 27
13 11 9 8 8 8 8 8 8 9 8 8 7 7 7 7 6 6 8 9 9 9 8 8 8 7 7 8 9 10 10 10 10 9 9 9 9 9 9 9 9 9 9 10 11 11 11 13 13 14 16 18 19 18 19 19 19 20 21 21 22 24 23 23 25 24 24 24 25 25 25 24 23 22 22 22 22 22 23 25 27 28 27 27 27
14 12 10 9 9 9 9 9 9 9 9 9 9 8 9 9 8 7 8 8 8 7 7 6 6 7 7 8 8 9 9 9 10 10 10 10 10 11 11 11 10 10 10 11 12 13 14 15 16 17 18 19 20 19 20 20 20 21 22 23 25 25 25 25 26 26 25 24 25 26 26 25 24 23 22 22 21 22 24 25 26 27 27 27 27
14 12 10 8 9 9 9 9 9 10 9 9 9 8 8 9 9 9 9 9 9 9 9 8 8 8 9 9 9 9 10 10 11 11 12 12 13 13 12 12 12 12 12 12 12 13 14 15 17 18 18 19 20 20 20 20 20 21 22 24 26 27 27 27 27 27 26 25 24 26 26 25 24 23 22 22 22 23 25 26 27 27 26 26 26
14 13 10 8 8 9 9 9 9 9 9 9 8 8 8 8 8 9 9 9 10 10 10 10 11 11 11 11 11 11 12 12 13 13 14 14 14 15 15 14 14 14 13 13 13 13 14 15 16 17 18 18 19 20 20 20 20 22 23 24 25 25 26 26 27 27 27 25 24 25 26 25 23 22 22 22 23 24 26 27 27 27 27 27 26
13 12 11 9 9 9 10 10 10 10 9 9 9 9 8 8 8 8 9 9 9 10 10 11 11 12 12 13 13 13 14 14 14 14 14 15 15 16 17 17 17 16 16 16 15 15 16 16 17 18 18 18 19 20 21 21 22 24 25 25 25 24 24 24 25 26 25 25 25 25 24 25 23 21 22 24 24 25 26 26 26 26 26 25 24
12 11 10 9 9 10 11 11 12 12 11 11 11 10 10 10 10 9 10 10 10 10 11 11 12 13 13 14 14 15 15 15 15 16 16 16 17 17 18 19 19 19 19 19 18 18 19 19 20 21 21 21 21 22 23 24 25 26 26 26 26 26 27 28 28 28 26 26 27 25 23 24 23 20 22 24 24 24 25 26 26 26 25 23 22
12 10 10 9 9 9 9 10 11 12 12 12 12 12 11 11 11 11 11 12 12 12 13 13 14 15 15 16 17 17 18 18 18 19 19 20 20 20 20 21 21 21 21 21 21 22 22 23 23 24 25 25 24 25 26 27 26 26 25 26 27 27 28 30 31 31 29 27 27 25 23 24 23 20 21 24 23 23 24 26 26 24 22 21 21
13 12 11 9 8 7 7 8 9 10 11 11 12 13 13 14 14 14 15 15 16 16 17 18 18 19 19 20 20 21 21 21 22 23 23 24 24 24 24 25 25 25 25 25 25 26 26 26 27 27 28 27 27 28 29 29 29 27 27 28 30 28 27 28 31 31 29 27 27 25 23 23 22 20 21 23 23 22 23 25 24 22 19 20 21
12 12 10 9 8 7 7 7 9 10 11 12 13 14 15 16 17 18 18 19 20 20 21 21 22 22 23 23 24 24 25 25 26 26 27 27 27 28 28 29 29 29 29 29 30 30 30 30 30 30 29 29 29 30 30 30 31 30 29 30 30 27 26 27 29 29 27 27 27 24 22 22 22 21 21 22 23 23 22 21 21 20 19 20 20
8 8 8 8 9 8 7 7 8 10 12 14 15 15 16 17 18 18 19 19 20 20 21 21 21 22 22 23 24 24 25 26 27 28 28 29 29 29 30 31 32 33 32 32 32 32 31 31 30 29 29 28 28 29 30 29 30 29 28 28 28 26 24 24 26 27 26 26 25 23 21 22 22 21 21 19 19 21 21 19 17 18 19 19 20
Wind_Direction
168 173 178 174 155 143 144 147 148 145 153 162 170 179 188 194 195 196 195 193 193 188 182 171 160 158 148 134 126 119 107 98 98 96 92 96 96 88 97 102 98 100 77 4 38 78 71 56 63 74 71 70 70 69 67 62 58 56 54 52 51 49 47 47 47 48 50 50 49 48 45 40 39 41 42 43 44 44 44 43 43 41 41 41 41
168 173 170 159 146 146 152 149 143 139 146 155 167 176 179 185 188 189 187 185 185 179 176 176 172 161 144 136 131 120 110 107 106 99 94 99 102 93 99 111 120 127 94 48 78 88 73 61 68 78 80 81 82 80 76 72 68 64 61 59 56 54 53 53 52 51 50 47 46 43 43 39 36 35 34 36 38 39 40 40 39 37 37 36 36
167 169 159 149 154 160 160 155 151 149 150 152 161 171 173 176 178 178 178 180 179 173 174 180 177 160 143 140 134 124 121 121 118 111 104 102 103 102 109 118 131 133 101 87 95 95 82 72 73 81 85 84 83 80 76 73 69 65 61 56 52 50 50 51 51 53 52 51 49 46 45 43 41 38 35 34 34 36 36 36 35 33 33 34 34
164 163 159 159 170 174 172 172 170 164 158 159 165 170 172 171 170 167 168 175 177 177 177 181 183 165 149 147 141 136 133 132 127 118 112 110 115 120 120 118 119 120 105 93 95 99 98 89 80 79 79 74 70 66 62 61 59 56 54 52 48 46 45 46 47 49 51 53 53 51 49 46 45 44 42 41 39 37 35 35 33 32 32 33 34
165 165 169 176 183 184 183 188 187 176 171 176 178 177 177 174 171 167 163 169 178 184 184 186 189 177 165 163 157 149 142 140 133 123 122 121 121 118 114 111 108 112 106 95 95 98 103 104 92 79 72 65 58 49 43 39 38 33 33 40 41 41 43 41 43 46 47 51 54 56 54 52 51 49 48 47 47 43 37 35 34 33 33 33 33
167 174 180 187 191 190 192 198 193 184 184 187 189 190 189 184 180 173 166 169 176 186 189 192 192 186 184 177 163 152 145 140 133 130 129 119 115 112 109 106 107 113 111 101 99 101 103 104 100 89 77 70 58 46 42 35 28 14 8 21 26 31 36 34 35 39 40 43 49 53 54 54 52 50 48 44 43 42 38 35 33 34 34 34 34
168 182 189 190 192 192 195 198 195 191 189 191 194 197 198 196 190 180 175 178 178 182 186 192 197 199 196 182 161 148 140 134 131 136 130 121 119 118 112 106 109 119 119 112 109 112 108 103 101 88 73 67 50 37 38 27 14 5 359 4 7 7 13 17 17 21 28 30 35 40 43 44 44 42 43 43 42 41 41 39 37 37 37 36 35
175 185 189 187 188 189 188 184 186 189 190 191 194 198 201 201 198 190 185 188 185 181 184 190 195 200 198 179 161 149 140 132 132 135 131 129 125 121 120 115 115 121 124 123 115 112 108 106 102 90 75 67 50 32 29 21 8 2 354 348 345 345 347 353 353 356 6 12 17 22 25 27 27 29 31 36 42 45 46 45 43 44 43 41 40
186 186 185 187 188 188 184 173 172 182 189 192 195 197 198 199 201 196 191 188 185 185 185 186 185 181 174 163 156 151 145 137 136 139 137 136 131 127 127 124 123 123 124 124 116 112 109 106 105 100 83 59 40 22 16 10 4 359 356 350 342 342 339 335 336 336 335 340 347 349 357 1 1 16 27 27 36 44 47 49 47 46 45 43 43
192 191 191 191 192 190 183 174 170 177 186 192 193 195 195 199 199 194 191 183 180 185 179 172 164 154 150 150 151 150 146 144 146 147 145 144 142 139 135 132 131 126 117 114 111 109 102 100 102 93 54 32 30 26 17 9 8 10 15 10 1 359 347 332 327 322 316 315 316 313 317 330 337 357 22 25 29 37 42 47 48 46 44 42 41
196 200 199 194 193 192 185 180 181 180 186 191 191 194 195 198 194 188 190 181 171 176 168 158 154 147 144 143 144 147 148 151 153 150 150 153 154 150 143 139 137 128 115 108 110 114 103 98 99 54 13 23 37 40 35 25 20 23 29 33 27 20 7 345 326 315 308 302 298 295 299 313 321 328 356 12 16 23 32 39 42 41 37 35 37
201 202 204 202 199 197 191 189 190 186 187 190 192 193 190 193 191 185 190 181 161 164 163 157 154 146 142 141 142 147 150 152 152 150 152 155 158 157 147 138 137 130 114 112 117 130 131 108 106 53 33 46 49 47 47 39 31 28 34 43 40 28 21 16 353 332 322 316 308 299 302 312 311 304 310 343 359 1 10 21 26 32 30 28 31
206 206 210 213 213 210 202 196 195 192 191 190 189 189 184 188 187 179 186 179 159 161 166 163 157 147 143 144 143 146 148 148 146 143 145 148 153 155 145 137 137 126 104 103 101 110 126 111 107 107 72 70 62 55 54 49 45 42 46 55 49 38 36 38 30 17 8 355 339 317 318 324 315 307 301 319 338 339 346 354 360 9 13 14 23
216 217 218 219 219 217 210 202 198 197 198 193 187 185 182 182 180 174 180 175 161 163 167 167 161 152 149 146 141 141 141 141 138 135 135 136 142 142 135 132 129 119 106 106 104 106 112 100 98 101 87 81 71 66 65 62 62 61 63 67 60 52 52 56 56 52 46 36 28 14 2 357 354 3 358 316 307 313 319 327 338 343 346 352 0
223 222 217 215 213 211 211 209 203 199 200 195 189 185 180 177 177 177 178 170 165 167 167 173 169 157 152 145 140 138 131 132 135 131 129 128 129 125 121 122 119 115 108 107 108 108 107 99 94 92 86 83 79 79 78 74 73 72 72 73 71 68 65 68 70 69 66 63 60 59 60 60 60 64 63 40 352 341 325 316 321 321 329 336 338
220 217 210 206 204 203 206 207 203 199 197 195 192 188 182 177 177 180 182 174 170 171 169 177 176 161 153 148 146 142 131 136 136 124 119 120 119 117 115 115 114 113 111 108 109 108 105 101 95 92 90 90 91 89 84 80 78 77 78 76 75 77 74 74 75 73 71 69 66 64 65 65 65 65 63 59 56 54 49 40 19 352 347 344 336
214 212 205 200 198 199 202 201 199 198 197 195 191 189 185 181 178 178 185 183 177 176 173 174 175 168 162 155 150 149 146 145 136 121 119 121 117 116 115 113 113 112 113 110 109 108 106 102 98 97 98 97 95 89 82 81 81 82 83 78 74 77 78 78 76 73 70 67 66 65 63 62 62 61 60 59 59 59 57 54 49 43 42 36 24
209 205 199 197 197 198 198 195 194 196 199 194 187 187 185 182 181 177 182 191 187 181 177 174 174 172 170 164 160 178 168 154 142 130 127 124 120 120 118 116 117 115 114 112 109 108 107 104 103 102 100 96 91 85 82 83 86 88 87 81 76 74 75 76 73 71 67 64 62 61 58 55 53 52 51 52 54 57 58 56 53 52 52 50 46
199 195 194 196 196 195 193 189 189 194 197 191 182 183 184 182 182 178 178 189 193 187 180 176 177 176 177 177 179 203 183 167 158 149 139 131 129 127 123 121 121 118 116 115 112 111 111 109 106 102 97 91 86 85 85 86 90 91 88 84 80 76 75 72 70 68 64 61 57 53 52 50 49 48 48 48 48 50 51 50 48 46 46 47 47
187 187 191 196 195 192 190 190 193 192 188 185 181 179 183 186 186 180 177 183 191 193 185 180 184 183 183 187 187 194 190 183 174 165 152 141 138 134 129 126 124 122 121 120 118 119 119 114 106 98 92 88 87 88 89 89 90 89 88 84 78 75 73 70 69 68 66 65 62 59 56 54 53 53 53 53 52 50 49 47 44 41 40 39 38
180 179 180 186 188 189 192 195 196 191 183 182 183 182 185 190 189 185 183 184 192 197 193 191 193 190 187 190 187 175 187 190 187 182 166 147 146 145 138 133 127 125 124 121 122 127 126 118 108 97 91 89 90 90 90 90 90 89 88 83 79 76 73 72 71 70 70 69 67 65 61 58 55 53 52 51 49 49 47 46 43 41 39 38 37
177 173 170 173 180 184 186 189 192 191 185 186 190 190 190 192 191 190 189 190 195 199 200 202 201 199 196 196 195 184 187 194 195 194 180 156 151 150 145 140 133 127 122 115 117 125 127 121 111 100 94 94 94 91 90 93 94 93 91 87 82 79 75 72 69 66 66 66 65 63 59 55 51 46 44 42 40 38 37 35 33 31 30 29 29
177 170 169 169 170 175 173 176 184 188 190 193 194 194 196 194 191 191 191 192 196 197 199 203 202 203 203 204 207 200 193 201 206 202 190 168 154 151 150 147 139 132 124 113 109 118 124 121 114 107 103 101 99 97 97 100 99 97 96 91 85 80 75 72 69 66 64 63 63 61 59 56 50 46 42 39 36 32 29 27 24 21 20 18 17
175 172 174 172 168 168 164 167 175 181 188 189 189 194 195 194 194 193 193 195 196 197 200 203 203 203 206 213 215 209 199 210 219 210 198 190 169 156 152 152 146 140 131 115 110 117 122 120 117 113 112 110 108 107 107 106 104 101 98 94 88 83 80 77 75 73 70 67 66 64 62 59 55 52 49 46 44 40 37 33 30 27 24 22 20
166 170 176 177 180 180 170 162 162 169 177 179 185 194 189 188 192 190 192 198 199 200 203 205 206 206 208 216 219 209 193 203 223 214 200 197 183 163 153 154 154 146 136 121 113 117 120 121 121 120 119 119 118 117 117 113 109 108 104 99 95 90 85 82 79 77 76 73 69 65 62 58 55 53 51 49 47 44 42 39 36 33 29 26 23
159 167 171 175 184 191 186 172 161 160 166 171 179 187 186 188 190 184 187 198 199 200 204 205 206 205 205 208 211 204 188 184 201 209 202 196 189 175 160 156 156 149 140 130 119 120 125 124 125 126 125 127 128 127 126 123 120 118 114 107 102 94 89 85 81 80 79 77 74 69 64 61 59 56 53 50 47 44 42 39 36 33 30 27 23
154 166 171 172 172 181 185 177 167 161 161 164 167 176 186 190 184 176 179 185 186 192 198 202 202 199 202 202 200 196 185 175 174 187 198 195 191 186 172 160 158 154 149 142 133 132 137 133 129 131 133 134 137 137 136 136 134 131 125 117 108 100 94 89 85 84 83 80 76 71 68 65 61 56 52 48 45 42 39 36 34 31 28 25 21
150 164 167 170 164 165 173 173 172 171 170 171 168 176 190 190 181 177 181 184 186 190 194 199 200 199 202 202 197 192 181 172 169 169 181 184 179 186 185 171 161 159 159 158 156 152 146 142 140 141 143 144 148 148 149 151 151 146 140 134 124 114 104 95 90 86 81 74 66 60 57 56 51 46 42 39 37 35 33 30 28 26 23 21 18
151 161 160 167 167 164 168 172 177 179 182 186 185 186 190 191 190 188 191 191 189 192 197 200 200 202 204 200 194 189 180 173 169 164 168 169 165 172 179 177 165 166 165 164 166 164 155 151 154 157 157 156 159 161 163 167 169 164 156 151 146 134 116 98 91 81 69 57 47 40 37 38 38 33 30 28 26 24 23 22 21 20 19 17 14
146 152 153 161 168 170 174 179 185 188 190 193 191 184 179 185 191 191 191 188 186 192 200 200 199 203 206 202 195 188 183 176 169 165 163 158 151 155 160 151 156 176 172 163 162 166 164 161 164 170 169 166 170 174 176 181 181 174 165 163 163 155 134 102 89 71 53 42 33 26 21 23 25 23 20 19 17 16 14 14 14 14 14 13 11
139 147 149 157 168 176 175 174 179 183 185 185 179 174 171 174 180 181 178 178 181 187 190 190 190 193 194 196 194 190 186 180 171 168 164 155 152 152 155 155 141 156 166 161 162 170 169 165 167 174 175 176 181 184 187 190 190 183 176 177 182 184 176 130 76 38 23 18 14 10 7 12 16 13 10 10 9 8 6 6 7 8 8 8 7
134 145 152 161 172 171 161 156 156 161 167 168 168 168 167 165 164 163 162 166 168 165 162 164 162 158 157 164 177 182 183 181 174 170 165 158 161 162 164 173 160 147 155 159 163 173 173 169 171 176 180 183 188 191 195 199 199 196 193 194 199 202 202 208 305 335 348 353 353 352 353 0 5 3 1 0 360 359 359 359 0 2 3 3 2
133 146 157 165 167 158 151 148 147 149 152 155 158 157 154 151 146 144 146 150 149 143 142 144 141 136 134 137 153 166 172 176 174 172 168 164 168 170 174 189 188 174 172 173 169 175 181 183 182 185 189 191 194 198 201 205 208 209 209 211 213 210 216 240 279 302 320 331 335 338 342 348 351 350 350 350 351 351 351 352 353 356 358 358 357
144 154 164 165 157 151 150 151 149 145 139 139 142 139 137 140 139 139 141 139 140 141 140 141 139 134 127 122 132 154 168 175 175 175 174 172 174 179 185 198 205 206 211 212 203 192 195 202 201 203 205 203 205 210 211 211 214 216 218 225 230 231 239 254 271 287 299 310 318 325 329 333 335 336 337 339 341 342 343 345 347 350 353 353 352
170 171 173 166 155 151 152 155 154 147 137 133 135 136 138 144 145 144 142 135 134 140 141 141 143 140 135 128 124 139 161 175 183 185 185 184 186 190 195 200 209 223 236 243 241 229 218 219 219 220 222 218 214 217 218 215 216 218 219 225 233 240 250 261 269 278 287 295 304 311 314 317 320 322 325 328 331 333 335 338 341 345 348 348 346
194 186 180 172 162 159 157 157 158 154 147 140 140 143 146 150 153 152 148 141 137 140 142 142 144 143 140 140 138 143 154 169 186 190 192 193 195 200 206 208 216 230 240 247 251 249 242 238 237 237 237 232 226 223 220 217 218 221 223 227 233 241 251 259 266 271 277 285 293 298 301 303 307 311 315 319 322 325 328 332 336 339 342 342 341
203 194 184 177 169 166 164 163 164 162 160 155 152 154 155 157 161 162 161 157 154 155 157 158 160 160 160 160 159 160 167 178 183 185 190 196 200 207 212 216 225 237 246 250 252 254 251 243 241 250 249 240 235 232 225 221 222 224 227 230 235 242 249 256 262 267 272 277 282 287 290 293 297 301 306 311 315 318 322 327 331 334 336 337 336
197 183 165 160 161 167 170 168 168 170 172 170 166 166 168 168 169 170 171 172 173 174 178 179 181 184 183 180 175 172 176 182 180 182 190 195 201 210 217 226 238 247 254 256 255 256 255 246 242 250 253 246 241 238 233 228 227 229 232 236 240 243 247 253 259 264 268 273 277 280 283 286 290 294 299 304 308 312 317 322 326 329 331 331 330
166 149 135 133 138 154 167 170 172 176 176 176 175 175 179 180 179 178 178 179 181 182 184 186 186 191 191 184 178 178 180 178 175 178 187 194 206 221 234 241 248 254 260 260 257 257 256 251 248 248 249 249 245 242 240 236 233 235 238 241 244 247 249 252 257 262 265 270 273 276 278 281 285 289 293 298 303 307 313 318 322 324 325 325 325
151 140 129 125 126 134 149 159 165 167 161 159 164 168 179 184 184 183 183 181 181 181 181 181 175 174 181 183 182 185 188 189 191 195 204 214 224 231 238 242 246 256 260 257 256 255 252 249 245 241 244 249 250 248 246 240 238 241 246 247 248 253 256 256 258 262 265 267 268 270 274 277 280 284 289 293 299 304 309 314 318 319 320 320 320
157 152 144 139 135 129 129 131 138 146 148 149 154 154 157 163 168 176 181 181 181 179 180 179 171 165 171 183 189 195 199 204 211 217 223 229 230 231 235 240 246 254 257 256 255 253 248 244 241 240 245 250 252 253 252 250 250 253 256 255 251 254 260 260 261 264 265 266 265 266 269 272 275 279 284 288 295 301 306 311 314 315 316 316 316
170 169 165 160 157 150 142 140 143 148 151 154 161 165 165 164 164 167 173 179 182 184 185 184 183 182 181 188 196 202 207 212 216 222 228 234 240 246 250 253 255 255 254 255 256 256 255 253 251 252 254 257 260 261 260 261 261 259 261 260 255 256 260 261 262 266 267 267 266 265 267 270 272 274 278 284 291 297 302 307 310 311 312 312 312
183 183 179 175 174 169 165 164 164 162 160 159 162 168 172 176 178 178 178 182 185 191 194 194 198 205 207 210 214 218 223 228 232 237 243 248 255 259 262 265 267 265 261 259 259 258 258 259 261 262 263 265 268 269 267 266 264 262 262 261 258 258 259 261 263 266 268 268 267 266 268 270 271 271 275 282 288 294 300 304 305 307 308 310 311
191 193 189 185 185 186 185 183 180 178 177 175 172 171 172 175 179 184 188 192 195 198 203 206 210 216 222 226 230 233 238 242 246 251 257 263 266 266 266 268 269 271 271 269 268 266 264 263 264 266 267 269 270 270 269 269 269 268 266 264 262 261 261 263 263 265 269 272 269 266 266 268 269 270 274 281 288 295 300 302 304 306 307 309 311
201 204 204 200 199 200 200 198 197 195 193 192 190 188 187 186 185 187 191 195 201 205 209 213 216 219 225 229 233 238 242 246 250 255 260 265 269 270 270 271 271 271 271 270 270 271 272 271 270 272 273 274 273 272 271 269 269 269 268 267 267 266 266 265 263 264 270 273 268 263 263 266 269 270 274 283 290 296 300 301 303 305 307 309 310
202 207 210 212 213 214 214 213 212 213 211 211 211 211 213 214 214 214 213 212 214 217 219 223 225 227 230 233 236 239 242 245 250 254 259 263 266 268 270 271 273 274 274 273 272 272 273 274 275 278 280 280 279 277 275 273 270 268 266 265 266 265 265 263 262 266 270 268 263 260 259 263 268 271 277 285 292 296 298 299 301 303 305 307 309
196 201 205 210 215 217 219 220 220 223 225 226 227 230 233 235 237 239 239 238 239 241 243 244 245 247 248 249 250 249 250 250 251 253 257 260 262 264 266 267 269 271 272 274 274 274 275 277 279 281 282 282 281 280 280 279 276 272 269 269 269 268 267 265 265 268 267 262 260 257 254 260 267 271 277 286 292 295 296 298 300 302 303 305 307
196 197 199 201 207 212 216 221 224 228 233 237 240 243 247 250 254 256 258 258 259 260 260 261 262 264 265 265 265 264 264 263 262 260 260 261 262 263 264 265 266 267 268 269 270 271 272 274 278 280 281 281 281 281 283 282 279 277 275 273 272 271 269 266 264 263 263 261 260 255 250 256 266 272 278 286 291 293 295 297 299 300 302 304 308
201 199 197 195 199 205 212 224 232 239 244 248 252 256 258 261 263 265 267 267 267 267 267 268 269 269 269 269 270 270 271 271 270 269 267 266 266 265 265 266 265 264 264 265 266 267 269 271 274 275 276 277 278 279 281 280 279 278 275 275 276 275 269 263 258 257 258 259 259 255 250 255 267 274 279 284 288 290 293 296 297 299 301 305 310
201 201 199 197 203 209 214 227 240 250 257 259 261 262 263 265 265 266 267 267 267 268 268 269 270 270 271 271 271 272 271 271 271 271 270 269 268 267 267 267 266 265 264 264 265 266 268 269 271 272 273 273 273 274 275 276 276 275 273 275 279 275 267 261 258 256 254 253 254 252 250 257 270 276 278 282 288 291 292 293 296 300 304 308 311
209 208 205 206 212 216 222 238 249 255 260 263 266 266 267 268 269 269 270 270 270 270 271 271 271 272 272 272 272 272 272 272 271 271 271 270 269 269 268 267 266 266 266 265 264 265 266 267 268 270 270 269 269 269 270 270 270 270 271 272 273 269 262 256 254 251 248 247 250 250 252 261 270 272 275 281 287 290 291 293 298 303 307 310 312